Location: Holyhead Bay
(53.3667°N, 4.6667°W)
Time: 11:34:31
(UTC+00:00)

Cosmos 2360 Rocket - Pass Details

Date: 18 April 2021
Orbit: 833 x 845 km, 71.0° (Epoch: 08 May)

Event Time Altitude Azimuth Distance (km) Brightness Sun altitude
Rises 20:31:56 0° 321° (NW) 3,415 7.0 -9.7°
Reaches altitude 10° 20:34:53 10° 307° (NW) 2,473 6.3 -10.1°
Maximum altitude 20:39:06 22° 258° (WSW) 1,767 4.4 -10.6°
Drops below altitude 10° 20:43:18 10° 210° (SSW) 2,454 4.6 -11.1°
Sets 20:46:14 0° 195° (SSW) 3,381 5.1 -11.4°
